TimeEDT,TemperatureF,Dew PointF,Humidity,Sea Level PressureIn,VisibilityMPH,Wind Direction,Wind SpeedMPH,Gust SpeedMPH,PrecipitationIn,Events,Conditions,WindDirDegrees,DateUTC
1:53 AM,75.9,71.1,85,30.01,10.0,Calm,Calm,-,N/A,,Clear,0,2013-07-18 05:53:00
2:53 AM,75.0,71.1,87,30.00,10.0,Calm,Calm,-,N/A,,Clear,0,2013-07-18 06:53:00
3:53 AM,73.9,70.0,87,29.99,10.0,South,5.8,-,N/A,,Clear,170,2013-07-18 07:53:00
4:53 AM,75.0,70.0,84,29.99,10.0,South,4.6,-,N/A,,Clear,170,2013-07-18 08:53:00
5:53 AM,72.0,69.1,91,30.00,8.0,Calm,Calm,-,N/A,,Clear,0,2013-07-18 09:53:00
6:53 AM,78.1,72.0,81,30.01,10.0,Calm,Calm,-,N/A,,Clear,0,2013-07-18 10:53:00
7:53 AM,82.9,72.0,69,30.02,10.0,West,5.8,-,N/A,,Clear,280,2013-07-18 11:53:00
8:53 AM,86.0,72.0,63,30.02,10.0,Variable,3.5,-,N/A,,Clear,0,2013-07-18 12:53:00
9:53 AM,89.1,71.1,55,30.02,10.0,West,5.8,-,N/A,,Clear,280,2013-07-18 13:53:00
10:53 AM,91.0,70.0,50,30.01,10.0,NW,3.5,-,N/A,,Clear,310,2013-07-18 14:53:00
11:53 AM,93.9,70.0,46,30.00,10.0,Variable,5.8,-,N/A,,Clear,0,2013-07-18 15:53:00
12:53 PM,93.9,68.0,43,30.00,10.0,WNW,6.9,-,N/A,,Scattered Clouds,300,2013-07-18 16:53:00
1:53 PM,95.0,66.9,40,29.98,10.0,West,8.1,16.1,N/A,,Partly Cloudy,280,2013-07-18 17:53:00
2:53 PM,96.1,68.0,40,29.97,10.0,West,8.1,-,N/A,,Scattered Clouds,280,2013-07-18 18:53:00
3:53 PM,96.1,68.0,40,29.96,10.0,West,9.2,16.1,N/A,,Clear,280,2013-07-18 19:53:00
4:53 PM,96.1,66.9,38,29.94,10.0,WNW,8.1,-,N/A,,Clear,300,2013-07-18 20:53:00
5:53 PM,95.0,66.9,40,29.94,10.0,West,5.8,-,N/A,,Clear,270,2013-07-18 21:53:00
6:53 PM,91.0,70.0,50,29.95,10.0,WSW,6.9,-,N/A,,Clear,250,2013-07-18 22:53:00
7:53 PM,87.1,72.0,61,29.96,10.0,West,4.6,-,N/A,,Clear,260,2013-07-18 23:53:00
8:53 PM,84.0,73.0,69,29.95,10.0,West,8.1,-,0.00,Rain,Light Rain,280,2013-07-19 00:53:00
9:53 PM,81.0,73.0,77,29.96,10.0,Calm,Calm,-,0.00,,Partly Cloudy,0,2013-07-19 01:53:00
10:53 PM,77.0,73.0,88,29.96,10.0,Calm,Calm,-,N/A,,Clear,0,2013-07-19 02:53:00
11:53 PM,75.0,71.1,87,29.94,10.0,South,4.6,-,N/A,,Clear,180,2013-07-19 03:53:00